{"data":{"norad_id":58803,"intl_designator":"2024-012S","name":"STARLINK-31141","alt_names":[],"object_type":"PAYLOAD","status":"ACTIVE","operator":null,"country":"US","launch_date":"2024-01-15","launch_site_code":"AFETR","launch_vehicle":null,"mission":null,"orbit_class":"UNKNOWN","rcs_meters":null,"size_class":null,"mass_kg":null,"dimensions":null,"purposes":["comms"],"wikipedia_slug":null,"has_3d_model":false,"image_url":null,"decayed_at":null,"tle_current":{"epoch":"2026-09-19T02:27:05.131872Z","epoch_age_seconds":273391,"freshness":"STALE","line1":"1 58803U 24012S   26262.10214273  .00026270  00000+0  96456-3 0  9990","line2":"2 58803  43.0052 153.1437 0000734 214.4075 145.6729 15.27450462150816","mean_motion":15.27450462,"eccentricity":7.34e-5,"inclination_deg":43.0052,"raan_deg":153.1437,"arg_perigee_deg":214.4075,"mean_anomaly_deg":145.6729,"bstar":0.00096456,"rev_number":15081,"period_min":94.274743163487,"perigee_km":482.93336729293,"apogee_km":483.94064635713,"semimajor_km":6861.574006825,"source":"CELESTRAK","updated_at":"2026-09-21T09:00:33.981462Z"}}}